Probability
0 0 0 0 0 0 0 0 0 0 0 0 0 0 0 0 0 0 0 0 0 0 0 0 0 0 0 0 0 0 0 0 0 0 0 0 0 0 0 0 0 0 0
0 0 0 0 0 0 0 0 0 0 0 0 0 0 0 0 0 0 0 0 0 0 0 0 0 0 0 0 0 0 0 0 0 0 0 0 0 0 0 0 0 0 0
0 0 0 0 0 0 0 0 0 0 0 0 0 0 0 0 0 0 0 0 0 0 0 0 0 0 0 0 0 0 0 0 0 0 0 0 0 0 0 0 0 0 0
0 0 0 0 0 0 0 0 0 0 0 0 0 0 0 0 0 0 0 0 0 0 0 0 0 0 0 0 0 0 0 0 0 0 0 0 0 0 0 0 0 0 0
0 0 0 0 0 0 0 0 0 0 0 0 0 0 0 0 0 0 0 0 0 0 0 0 0 0 0 0 0 0 0 0 0 0 0 0 0 0 0 0 0 0 0
0 0 0 0 0 0 0 0 0 0 0 0 0 0 0 0 0 0 0 0 0 0 0 0 0 0 0 0 0 0 0 0 0 0 0 0 0 0 0 0 0 0 0
0 0 0 0 0 0 0 0 0 0 0 0 0 0 0 0 0 0 0 0 0 0 0 0 0 0 0 0 0 0 0 0 0 0 0 0 0 0 0 0 0 0 0
0 0 0 0 0 0 0 0 0 0 0 0 0 0 0 0 0 0 0 0 0 0 0 0 0 0 0 0 0 0 0 0 0 0 0 0 0 0 0 0 0 0 0
0 0 0 0 0 0 0 0 0 0 0 0 0 0 0 0 0 0 0 0 0 0 0 0 0 0 0 0 0 0 0 0 0 0 0 0 0 0 0 0 0 0 0
0 0 0 0 0 0 0 0 0 0 0 0 0 0 0 0 0 0 0 0 0 0 0 0 0 0 0 0 0 0 0 0 0 0 0 0 0 0 0 0 0 0 0
0 0 0 0 0 0 0 0 0 0 0 0 0 0 0 0 0 0 0 0 0 0 0 0 0 0 0 0 0 0 0 0 0 0 0 0 0 0 0 0 0 0 0
0 0 0 0 0 0 0 0 0 0 0 0 0 0 0 0 0 0 0 0 0 0 0 0 0 0 0 0 0 0 0 0 0 0 0 0 0 0 0 0 0 0 0
0 0 0 0 0 0 0 0 0 0 0 0 0 0 0 0 0 0 0 0 0 0 0 0 0 0 0 0 0 0 0 0 0 0 0 0 0 0 0 0 0 0 0
0 0 0 0 0 0 0 0 0 0 0 0 0 0 0 0 0 0 0 0 0 0 0 0 0 0 0 0 0 0 0 0 0 0 0 0 0 0 0 0 0 0 0
0 0 0 0 0 0 0 0 0 0 0 0 0 0 0 0 0 0 0 0 0 0 0 0 0 0 0 0 0 0 0 0 0 0 0 0 0 0 0 0 0 0 0
0 0 0 0 0 0 0 0 0 0 0 0 0 0 0 0 0 0 0 0 0 0 0 0 0 0 0 0 0 0 0 0 0 0 0 0 0 0 0 0 0 0 0
0 0 0 0 0 0 0 0 0 0 0 0 0 0 0 0 0 0 0 0 0 0 0 0 0 0 0 0 0 0 0 0 0 0 0 0 0 0 0 0 0 0 0
0 0 0 0 0 0 0 0 0 0 0 0 0 0 0 0 0 0 0 0 0 0 0 0 0 0 0 0 0 0 0 0 0 0 0 0 0 0 0 0 0 0 0
0 0 0 0 0 0 0 0 0 0 0 0 0 0 0 0 0 0 0 0 0 0 0 0 0 0 0 0 0 0 0 0 0 0 0 0 0 0 0 0 0 0 0
0 0 0 0 0 0 0 0 0 0 0 0 0 0 0 0 0 0 0 0 0 0 0 0 0 0 0 0 0 0 0 0 0 0 0 0 0 0 0 0 0 0 0
0 0 0 0 0 0 0 0 0 0 0 0 0 0 0 0 0 0 0 0 0 0 0 0 0 0 0 0 0 0 0 0 0 0 0 0 0 0 0 0 0 0 0
0 0 0 0 0 0 0 0 0 0 0 0 0 0 0 0 0 0 0 0 0 0 0 0 0 0 0 0 0 0 0 0 0 0 0 0 0 0 0 0 0 0 0
0 0 0 0 0 0 0 0 0 0 0 0 0 0 0 0 0 0 0 0 0 0 0 0 0 0 0 0 0 0 0 0 0 0 0 0 0 0 0 0 0 0 0
0 0 0 0 0 0 0 0 0 0 0 0 0 0 0 0 0 0 0 0 0 0 0 0 0 0 0 0 0 0 0 0 0 0 0 0 0 0 0 0 0 0 0
0 0 0 0 0 0 0 0 0 0 0 0 0 0 0 0 0 0 0 0 0 0 0 0 0 0 0 0 0 0 0 0 0 0 0 0 0 0 0 0 0 0 0
0 0 0 0 0 0 0 0 0 0 0 0 0 0 0 0 0 0 0 0 0 0 0 0 0 0 0 0 0 0 0 0 0 0 0 0 0 0 0 0 0 0 0
Height
5757 5760 5764 5768 5769 5771 5773 5775 5777 5778 5779 5779 5780 5780 5780 5779 5778 5776 5773 5771 5769 5767 5764 5762 5758 5755 5751 5747 5743 5739 5735 5732 5730 5728 5724 5720 5716 5713 5709 5704 5699 5694 5690
5750 5754 5758 5762 5763 5765 5767 5768 5771 5772 5773 5774 5774 5774 5774 5773 5771 5768 5767 5764 5762 5760 5757 5754 5750 5746 5741 5737 5733 5729 5726 5721 5719 5717 5715 5713 5709 5704 5698 5692 5686 5681 5676
5742 5747 5752 5755 5757 5758 5760 5762 5764 5766 5767 5768 5768 5768 5768 5767 5764 5762 5760 5757 5755 5752 5748 5745 5741 5736 5731 5727 5723 5720 5717 5712 5707 5703 5700 5698 5695 5694 5691 5683 5675 5668 5662
5736 5741 5745 5748 5750 5752 5754 5757 5758 5759 5761 5762 5762 5761 5761 5759 5757 5755 5753 5750 5747 5744 5740 5735 5731 5726 5722 5718 5714 5710 5706 5702 5697 5691 5684 5678 5673 5669 5669 5668 5660 5653 5646
5728 5733 5738 5741 5743 5745 5748 5750 5751 5752 5754 5755 5755 5755 5753 5752 5749 5747 5745 5742 5738 5734 5730 5726 5721 5718 5713 5709 5704 5700 5695 5690 5685 5680 5674 5666 5658 5648 5642 5640 5638 5633 5627
5722 5727 5731 5734 5737 5739 5741 5743 5745 5746 5747 5748 5748 5747 5746 5744 5742 5739 5736 5732 5729 5725 5721 5717 5713 5709 5705 5700 5695 5690 5684 5678 5670 5664 5657 5650 5642 5635 5627 5621 5615 5608 5602
5715 5720 5724 5727 5730 5732 5734 5737 5739 5740 5741 5741 5740 5739 5738 5736 5734 5731 5728 5724 5721 5716 5712 5708 5705 5700 5696 5691 5685 5679 5672 5664 5656 5648 5641 5632 5623 5615 5606 5599 5594 5589 5583
5708 5713 5717 5720 5723 5726 5728 5731 5732 5733 5734 5733 5733 5732 5730 5728 5726 5723 5720 5716 5712 5709 5704 5700 5695 5691 5686 5681 5674 5667 5660 5651 5642 5633 5624 5616 5608 5599 5588 5578 5568 5563 5560
5701 5707 5712 5715 5718 5720 5721 5723 5724 5726 5726 5725 5724 5723 5722 5720 5717 5714 5711 5707 5703 5700 5695 5691 5686 5681 5675 5669 5662 5655 5646 5636 5626 5618 5609 5601 5592 5583 5571 5559 5546 5534 5528
5695 5701 5706 5709 5711 5712 5714 5717 5718 5719 5719 5718 5717 5715 5714 5711 5708 5705 5702 5698 5694 5689 5685 5681 5676 5669 5663 5656 5649 5640 5631 5621 5611 5602 5594 5584 5575 5565 5552 5539 5525 5508 5494
5690 5695 5699 5701 5703 5705 5708 5710 5711 5711 5711 5710 5709 5708 5706 5703 5699 5696 5693 5690 5685 5680 5676 5670 5664 5657 5651 5643 5635 5626 5616 5606 5596 5586 5577 5566 5555 5544 5530 5517 5502 5485 5463
5684 5689 5693 5696 5699 5700 5702 5703 5703 5704 5703 5702 5702 5700 5697 5694 5691 5688 5685 5680 5675 5670 5665 5659 5653 5646 5638 5629 5620 5610 5600 5590 5580 5570 5559 5547 5535 5521 5506 5490 5474 5457 5436
5680 5684 5688 5692 5694 5695 5695 5696 5697 5697 5696 5695 5694 5692 5689 5687 5684 5680 5675 5670 5665 5660 5654 5647 5640 5633 5624 5614 5604 5594 5584 5574 5563 5551 5539 5525 5512 5497 5480 5461 5443 5424 5404
5675 5679 5683 5686 5688 5688 5689 5690 5690 5690 5689 5688 5686 5685 5682 5679 5675 5670 5665 5660 5655 5649 5642 5635 5627 5618 5608 5598 5588 5578 5568 5557 5544 5531 5516 5501 5485 5468 5450 5430 5410 5389 5372
5671 5674 5678 5680 5681 5682 5682 5683 5683 5683 5682 5680 5679 5677 5674 5670 5665 5660 5656 5650 5644 5637 5630 5623 5613 5602 5592 5582 5572 5562 5551 5539 5525 5510 5493 5476 5457 5438 5418 5396 5376 5358 5347
5667 5670 5673 5674 5675 5676 5676 5676 5676 5675 5674 5673 5671 5668 5664 5660 5656 5651 5645 5639 5632 5625 5617 5608 5597 5586 5576 5566 5556 5545 5533 5519 5504 5488 5470 5450 5430 5410 5388 5366 5348 5334 5322
5665 5666 5667 5668 5668 5669 5669 5669 5668 5668 5667 5665 5663 5659 5655 5650 5645 5640 5634 5627 5620 5612 5602 5591 5581 5571 5561 5551 5540 5528 5514 5499 5482 5463 5444 5424 5402 5379 5360 5344 5328 5315 5302
5659 5661 5662 5663 5663 5663 5663 5663 5662 5661 5659 5657 5653 5649 5644 5639 5634 5629 5623 5616 5607 5597 5587 5577 5567 5557 5546 5535 5523 5510 5495 5479 5460 5438 5416 5395 5374 5355 5339 5322 5309 5296 5282
5655 5656 5656 5656 5657 5657 5657 5656 5655 5653 5651 5647 5643 5639 5634 5629 5624 5618 5611 5603 5593 5582 5573 5562 5552 5543 5531 5519 5506 5492 5477 5458 5437 5415 5391 5368 5351 5336 5319 5303 5291 5279 5267
5649 5650 5650 5651 5651 5651 5650 5649 5647 5645 5641 5638 5634 5630 5625 5619 5612 5605 5597 5588 5579 5569 5560 5550 5539 5527 5515 5501 5486 5471 5455 5437 5416 5395 5372 5352 5333 5318 5304 5291 5280 5270 5262
5643 5644 5645 5645 5645 5644 5642 5641 5639 5636 5633 5629 5625 5620 5614 5608 5601 5592 5583 5575 5566 5558 5549 5539 5526 5512 5497 5481 5464 5445 5426 5408 5391 5373 5356 5338 5322 5307 5295 5284 5276 5268 5261
5638 5639 5638 5638 5637 5636 5635 5633 5630 5627 5623 5619 5614 5609 5602 5595 5587 5579 5570 5563 5555 5546 5535 5525 5512 5496 5479 5462 5443 5424 5403 5383 5368 5355 5339 5325 5311 5298 5288 5281 5274 5267 5261
5631 5631 5630 5630 5629 5628 5626 5624 5621 5617 5613 5608 5603 5597 5590 5582 5575 5567 5560 5551 5542 5533 5522 5510 5497 5480 5462 5444 5424 5405 5386 5369 5355 5341 5327 5315 5304 5294 5286 5279 5273 5267 5261
5624 5624 5623 5623 5622 5620 5617 5614 5611 5607 5602 5597 5591 5585 5578 5571 5564 5556 5548 5538 5528 5518 5506 5493 5479 5462 5443 5424 5406 5389 5373 5358 5344 5331 5320 5309 5299 5291 5285 5279 5272 5266 5262
5619 5618 5617 5616 5613 5611 5608 5605 5601 5597 5592 5586 5580 5574 5567 5560 5552 5543 5534 5525 5513 5501 5488 5474 5459 5442 5424 5405 5386 5371 5358 5345 5333 5322 5312 5303 5296 5290 5283 5276 5271 5266 5260
5613 5612 5610 5607 5605 5602 5599 5596 5591 5586 5581 5576 5570 5564 5557 5549 5541 5532 5521 5508 5497 5482 5467 5451 5435 5418 5400 5385 5371 5358 5344 5333 5323 5315 5306 5299 5293 5288 5281 5275 5270 5265 5260
Wind_Speed
30 28 26 26 29 28 26 23 19 23 25 23 22 22 25 27 29 31 31 30 29 32 35 37 39 42 43 44 46 45 43 42 40 40 42 44 46 47 49 52 55 57 60
30 28 27 26 28 28 25 24 21 23 26 25 24 25 27 28 30 29 28 28 30 34 37 40 41 43 44 44 41 39 39 41 42 43 45 46 48 51 54 57 59 62 64
30 27 27 28 27 28 27 26 24 24 26 27 27 28 29 29 27 26 27 31 35 38 40 41 42 42 40 37 37 39 41 44 47 49 51 53 54 55 56 59 62 64 65
28 27 27 29 28 28 28 28 27 26 27 29 30 30 29 28 28 29 32 37 39 39 41 42 41 38 37 38 40 43 45 47 50 54 59 62 65 66 65 63 64 66 67
28 27 27 28 27 27 28 29 29 29 30 31 31 30 28 28 30 33 37 39 40 41 42 40 38 39 39 41 44 47 49 52 55 58 61 64 67 71 73 71 69 67 67
27 27 26 26 26 27 27 28 29 30 30 32 31 29 29 31 33 36 39 39 40 41 39 38 39 41 42 44 46 49 53 56 59 62 65 67 68 68 69 70 71 74 75
27 26 27 27 27 27 28 28 29 29 30 30 30 30 32 34 36 38 38 38 39 39 39 40 41 42 44 47 50 53 57 60 63 66 67 68 67 68 70 73 75 77 79
29 28 28 28 29 29 28 28 28 29 30 29 31 33 35 37 37 38 38 38 38 39 40 42 43 45 48 51 55 58 61 65 67 67 66 65 66 69 73 79 83 85 86
27 27 29 29 29 29 28 28 28 28 29 30 33 35 37 36 37 38 39 38 39 40 41 43 46 49 52 55 58 61 65 67 67 65 65 66 69 73 79 84 90 95 97
26 26 27 30 30 30 29 28 27 29 30 32 35 36 35 35 36 38 38 39 41 42 43 46 49 53 56 59 63 67 68 67 65 65 67 71 75 80 85 90 95 101 107
26 28 29 28 29 29 29 29 29 30 31 33 34 33 34 35 36 36 39 41 43 45 47 50 53 56 60 64 67 69 68 65 65 68 72 77 82 86 90 96 102 108 115
25 26 26 25 25 26 28 28 29 31 32 32 32 33 34 34 35 38 41 43 45 48 50 53 56 60 64 68 69 67 65 66 69 74 79 83 87 92 98 104 110 115 120
22 22 22 22 23 25 26 27 28 29 30 31 32 33 33 35 37 41 43 45 49 51 53 56 60 64 68 69 67 65 66 69 74 80 85 90 94 100 106 112 117 120 116
19 19 20 22 23 24 24 25 27 29 30 30 31 32 34 37 40 43 46 49 50 53 56 60 65 68 69 67 65 66 69 74 80 86 92 98 103 108 114 118 119 113 98
15 17 20 22 22 23 24 25 27 28 28 30 31 34 36 40 43 45 48 50 52 55 59 64 68 70 67 65 66 69 74 80 85 92 99 105 110 115 119 117 107 95 86
11 14 17 19 20 21 23 25 26 27 28 31 33 36 39 42 44 46 48 51 54 59 64 69 69 66 65 67 71 76 80 86 93 99 106 111 115 118 112 99 91 89 87
10 13 15 16 18 21 23 25 25 27 30 33 36 39 42 44 46 47 49 53 58 63 68 68 64 64 67 72 77 82 87 94 101 107 112 115 115 106 95 90 88 84 80
15 17 17 18 20 22 23 24 26 29 32 35 39 42 44 46 46 48 52 57 62 66 66 63 64 67 72 77 81 86 93 100 105 110 115 112 100 90 88 86 80 75 68
14 16 18 19 21 22 23 25 28 31 35 38 41 43 43 44 47 51 56 60 64 63 61 62 66 72 77 81 86 92 98 103 108 113 108 96 88 85 81 75 69 60 47
16 18 19 20 21 23 25 28 31 33 36 37 38 40 43 46 50 55 59 61 59 58 60 65 71 75 81 87 92 97 102 107 110 103 90 84 81 75 69 62 53 39 30
18 18 18 20 22 25 27 30 32 34 36 38 40 43 46 50 53 56 58 56 56 59 64 68 73 80 86 91 96 101 106 108 102 88 80 75 70 65 55 46 38 31 24
16 17 19 21 24 27 30 32 34 36 38 41 43 46 49 52 54 53 53 55 58 62 66 70 76 83 88 94 99 105 107 100 87 79 72 66 61 52 40 34 28 24 21
18 20 23 26 27 29 31 33 36 38 41 43 45 47 50 51 50 51 53 57 60 64 69 74 81 87 93 97 102 104 96 83 77 70 63 56 48 39 31 26 23 20 17
21 22 24 26 28 31 33 36 38 39 41 43 46 48 47 48 50 52 55 59 63 69 75 81 87 92 96 100 101 95 81 75 69 61 53 46 41 32 24 24 21 17 17
19 22 25 28 30 32 34 35 36 38 42 44 45 45 46 48 50 54 57 63 69 75 81 87 92 95 98 99 94 81 74 67 59 51 44 37 28 24 28 25 20 19 18
21 24 27 29 31 32 33 35 38 40 41 42 44 46 47 49 52 56 63 70 76 82 87 92 95 98 97 90 79 72 66 57 48 42 33 24 24 26 24 20 20 19 18
Wind_Direction
239 241 242 242 241 245 249 254 253 238 241 253 262 267 275 282 290 293 294 293 290 288 290 294 296 296 296 296 295 293 291 291 290 289 289 290 290 290 290 290 290 290 290
235 237 237 241 242 243 248 252 252 243 245 255 261 268 276 285 292 296 293 293 294 294 297 299 297 297 297 296 295 294 293 292 291 291 289 289 291 292 293 293 293 293 293
231 235 236 240 243 244 247 252 254 254 252 255 261 269 277 284 293 298 297 298 299 298 298 298 298 299 299 298 297 297 296 297 297 296 295 293 292 291 291 291 291 291 291
228 234 235 238 241 242 246 252 252 256 256 257 261 268 275 284 291 294 296 297 297 296 297 299 300 300 299 299 299 299 299 299 300 301 301 301 300 298 295 293 292 292 292
224 231 233 236 238 241 245 249 250 255 257 258 262 267 274 282 288 291 293 294 296 297 298 298 299 299 300 301 302 303 303 302 302 301 301 300 300 299 299 298 296 296 295
226 231 236 237 237 240 244 248 249 253 256 258 261 265 273 281 286 290 292 293 295 296 295 296 298 299 301 303 304 304 303 303 302 302 302 301 300 299 300 300 300 299 299
226 233 238 238 236 237 241 246 248 251 255 257 261 267 275 281 285 288 290 293 294 294 294 296 297 300 302 303 303 303 303 304 304 305 304 303 303 303 303 302 300 300 301
224 232 237 238 237 237 241 247 251 253 257 261 265 270 276 281 285 287 290 292 293 293 295 296 299 301 302 302 303 304 305 306 306 306 305 305 304 304 303 303 302 302 302
222 232 237 239 238 238 242 248 254 258 261 265 269 273 278 282 285 289 291 292 293 294 295 297 299 300 301 302 304 305 306 307 307 307 306 304 303 303 303 304 305 304 304
224 231 236 236 235 237 242 249 255 259 263 267 271 276 281 283 287 289 291 292 293 294 296 299 300 301 302 305 306 307 307 308 308 307 306 305 304 305 306 306 306 305 304
217 223 227 229 232 236 242 249 255 261 265 269 274 279 281 284 286 288 291 293 294 296 298 299 300 303 305 305 307 308 309 308 307 307 307 308 308 308 307 307 306 306 305
217 220 223 227 233 238 243 249 256 262 267 273 277 280 282 284 286 290 292 294 295 296 297 299 301 304 305 307 309 309 308 308 308 309 310 310 310 310 309 308 308 307 307
221 223 227 233 238 242 247 253 260 265 271 275 278 280 282 285 289 291 293 294 294 295 298 301 303 306 308 309 309 308 308 308 310 311 312 312 311 310 310 309 309 309 308
221 227 235 241 245 249 253 258 262 268 273 276 278 281 285 288 291 293 293 293 294 297 300 303 305 308 308 308 308 309 309 311 312 314 314 313 312 312 311 311 310 309 307
218 226 233 239 245 252 257 261 266 271 275 278 281 285 288 290 292 292 292 294 297 300 303 305 307 308 308 308 309 310 311 312 313 315 315 314 314 313 313 312 310 307 305
223 232 239 244 249 255 261 266 270 274 277 281 284 288 290 291 291 292 295 298 300 302 304 306 308 308 308 309 310 311 312 313 314 314 315 315 314 314 313 311 309 307 305
241 250 257 261 263 265 268 270 273 276 281 286 289 290 289 290 291 294 297 300 302 304 306 308 308 308 309 311 312 312 313 315 315 315 315 315 316 314 312 311 309 307 304
253 257 258 259 261 263 267 272 277 283 287 288 288 288 289 291 293 297 301 303 305 307 308 308 308 310 312 312 312 314 316 316 316 316 317 317 316 314 314 312 311 310 308
247 252 257 262 265 269 275 280 284 286 286 287 289 292 294 297 299 301 303 305 306 307 308 309 311 312 312 312 314 316 317 317 318 319 319 318 316 317 316 316 316 316 314
257 261 266 269 273 276 280 282 284 286 288 290 292 294 296 298 300 302 304 305 307 308 310 311 312 313 314 316 316 317 318 320 320 320 319 318 318 319 318 319 322 325 325
262 267 271 274 277 279 280 281 284 286 288 289 291 294 297 300 302 304 305 307 308 310 312 313 314 316 317 317 318 319 321 321 321 321 321 320 320 319 320 322 326 329 333
269 272 276 279 282 282 283 284 287 288 290 292 295 298 300 302 303 305 307 309 311 313 314 315 317 317 318 319 320 321 323 323 322 323 322 322 323 324 324 326 330 335 339
272 276 281 285 286 286 287 288 290 291 294 296 298 300 301 303 305 307 310 312 313 314 315 316 317 319 319 320 321 323 323 322 323 323 323 325 327 328 329 333 336 338 344
278 281 284 286 287 288 289 291 294 295 296 297 299 301 303 305 308 310 312 314 315 316 317 318 319 320 320 321 323 324 323 322 323 323 323 324 326 329 334 337 340 344 347
279 283 285 287 288 290 293 295 296 296 298 300 302 304 306 309 311 313 315 317 318 319 319 320 320 321 322 323 324 323 323 323 323 324 325 326 327 330 332 335 340 341 344
286 288 288 289 291 294 295 297 298 300 302 304 306 307 309 311 313 315 317 319 320 320 320 321 322 323 324 324 324 323 323 323 324 326 328 329 329 329 331 332 333 337 338